Home   Weather   Kings County   Past weeks

Flag for Canada Past Weather in Kings County, Nova Scotia, Canada — Yesterday and Last 2 Weeks

Now
32 °F

Chilly.


Feels Like: 32 °F
Forecast: 31 / 40 °F
Wind: 2 mph from Southwest

Location: Kentville

Current Time: Dec 8, 2016 at 8:11:26 am

Latest Report: Dec 8, 2016 at 7:00 am


Visibility: N/A

Pressure: 29.88 "Hg

Humidity: 86%

Dew Point: 28 °F

Location of Kings CountyLocation

Past Weather in Kings County — Graph

°F

Kings County Temperature Yesterday

Maximum temperature yesterday: 32 °F (at 8:00 pm)
Minimum temperature yesterday: 25 °F (at 7:00 am)
Average temperature yesterday: 29 °F

High & Low Weather Summary for the Past Weeks

 TemperatureHumidityPressure
High46 °F (Dec 1, 7:00 pm)100% (Nov 27, 9:00 pm)30.39 "Hg (Nov 27, 9:00 pm)
Low23 °F (Dec 5, 8:00 am)61% (Nov 28, 4:00 pm)29.25 "Hg (Dec 1, 10:00 pm)
Average34 °F83%29.95 "Hg
* Reported Nov 23 7:00 am — Dec 8 7:00 am, Kings County, Weather by CustomWeather, © 2016

Note: Actual official high and low records may vary slightly from our data, if they occured in-between our weather recording intervals... More about our weather records

Advertising

Kings County Weather History for the Previous 24 Hours

Scroll right to see more
 ConditionsComfort  
Time TempWeatherWind HumidityBarometerVisibility
7:00 am
Thu, Dec 8
32 °FChilly.2 mph86%29.88 "HgN/A
6:00 am31 °FChilly.1 mph84%29.88 "HgN/A
5:00 am30 °FChilly.5 mph84%29.89 "HgN/A
4:00 am32 °FChilly.2 mph74%29.91 "HgN/A
3:00 am33 °FChilly.3 mph75%29.93 "HgN/A
2:00 am33 °FChilly.3 mph70%29.94 "HgN/A
1:00 am31 °FChilly.3 mph87%29.93 "HgN/A
11:00 pm
Wed, Dec 7
31 °FChilly.2 mph92%29.96 "HgN/A
10:00 pm32 °FChilly.3 mph90%29.97 "HgN/A
9:00 pm32 °FChilly.5 mph90%29.96 "HgN/A
8:00 pm32 °FChilly.2 mph90%29.96 "HgN/A
7:00 pm31 °FChilly.No wind82%29.96 "HgN/A
6:00 pm31 °FChilly.No wind81%29.97 "HgN/A
5:00 pm31 °FChilly.No wind74%29.98 "HgN/A
4:00 pm32 °FChilly.2 mph71%29.96 "HgN/A
3:00 pm32 °FChilly.1 mph71%29.96 "HgN/A
1:00 pm31 °FChilly.1 mph69%29.97 "HgN/A
12:00 pm30 °FChilly.1 mph71%29.97 "HgN/A
11:00 am29 °FChilly.3 mph75%30.01 "HgN/A
9:00 am26 °FChilly.3 mph80%30.00 "HgN/A
8:00 am26 °FChilly.2 mph82%29.99 "HgN/A
Weather by CustomWeather, © 2016

See weather overviewHow to use our weather pages